Location: Dallas
(32.7833°N, 96.8000°W)
Time: 05:33:20
(UTC-05:00)

ISS - Visible Passes

Search period start: 19 June 2021 00:00
Search period end: 29 June 2021 00:00
Orbit: 417 x 422 km, 51.6° (Epoch: 18 June)

Date Brightness Start Highest point End Pass type
(mag) Time Alt. Az. Time Alt. Az. Time Alt. Az.
22 Jun -1.8 05:40:45 10° S 05:43:27 23° SE 05:46:10 10° ENE visible
23 Jun -1.1 04:54:44 10° SSE 04:56:09 12° SE 04:57:35 10° E visible
24 Jun -3.8 05:41:49 10° SW 05:45:10 89° NNW 05:48:32 10° NE visible
25 Jun -3.0 04:56:22 27° S 04:57:45 44° SE 05:00:59 10° ENE visible
26 Jun -1.8 04:10:51 22° ESE 04:10:51 22° ESE 04:13:08 10° ENE visible
26 Jun -2.2 05:44:14 10° W 05:47:07 26° NW 05:50:00 10° NNE visible
27 Jun -3.1 04:58:15 28° W 04:59:34 45° NW 05:02:49 10° NNE visible
28 Jun -3.3 04:12:36 62° NE 04:12:36 62° NE 04:15:27 10° NE visible
28 Jun -1.1 05:48:19 10° NW 05:49:19 11° NNW 05:50:19 10° NNW visible
